Regional Weather Roundup
Issued by NWS Newport/Morehead, NC

Current Version | Previous Version | Text Only | Print | Product List | Glossary On
Versions: 1 2 3 4 5 6 7 8 9 10 11 12 13 14 15 16 17 18 19 20 21 22 23 24 25 26 27 28 29 30 31 32 33 34 35 36 37 38 39 40 41 42 43 44 45 46 47 48 49 50
000
ASUS42 KMHX 302022
RWRMHX
WEATHER ROUNDUP FOR EASTERN NORTH CAROLINA
NATIONAL WEATHER SERVICE NEWPORT/MOREHEAD CITY NC
400 PM EDT TUE SEP 30 2014

NOTE: "FAIR" INDICATES FEW OR NO CLOUDS BELOW 12,000 FEET
WITH NO SIGNIFICANT WEATHER AND/OR OBSTRUCTIONS TO VISIBILITY

NCZ015>017-031-032-045>047-102-103-302100-
NORTH COAST

CITY           SKY/WX    TMP DP  RH WIND       PRES   REMARKS
EDENTON        PTSUNNY   75  64  68 S6        29.84F
ELIZABETH CITY SUNNY     77  63  61 NE12      29.85S
KITTY HAWK     CLEAR     74  63  67 NE7       29.84S
MANTEO         SUNNY     74  61  64 N10       29.85S

$$

NCZ045>047-081-094-103-104-302100-
CENTRAL COAST

CITY           SKY/WX    TMP DP  RH WIND       PRES   REMARKS
FRISCO         SUNNY     72  65  78 NE8G21    29.83S
SWANQUARTER      N/A     79 N/A N/A NE7       29.79S

$$

NCZ095-097-098-100-101-302100-
SOUTHERN COAST

CITY           SKY/WX    TMP DP  RH WIND       PRES   REMARKS
BEAUFORT       SUNNY     79  64  60 NE12      29.82F
CEDAR ISLAND     N/A     73 N/A N/A NE14      29.88S
JACKSONVILLE   MOSUNNY   79  62  56 N9        29.82S
NEWPORT        NOT AVBL
PINEY ISLAND   CLEAR     77  65  66 NE9       29.82F HAZE
WILMINGTON     MOSUNNY   82  64  54 NE7       29.82F


$$

NCZ011>013-027>030-043-044-078>080-089-090>093-098-302100-
COASTAL PLAIN

CITY           SKY/WX    TMP DP  RH WIND       PRES   REMARKS
AHOSKIE        MOSUNNY   73  64  72 N5        29.87S
CLINTON        MOSUNNY   80  66  62 N3        29.85S
ELIZABETHTOWN  MOSUNNY   80  63  55 NW7       29.84F
GOLDSBORO      MOSUNNY   79  68  69 CALM      29.83F
GREENVILLE     MOSUNNY   81  64  57 NE8       29.87F
HAVELOCK       MOSUNNY   80  65  59 N7        29.83F
KENANSVILLE    MOSUNNY   80  60  51 N6        29.85S
KINSTON        MOSUNNY   79  63  57 N9        29.85F
NEW BERN       MOSUNNY   81  63  54 NE8G16    29.84F
RICHLANDS      MOSUNNY   79  63  57 N6        29.83S
ROANOKE RAPIDS NOT AVBL
ROCKY MOUNT    SUNNY     73  63  70 N5        29.87F
WASHINGTON     MOSUNNY   78  62  57 NE8       29.84S
WHITEVILLE     SUNNY     79  63  58 NW3       29.83S

$$

AMZ130-135-150-152-154-156-158-170-250-252-270-ANZ085-086-088-633-658-670-302100-
MARINE OBSERVATIONS

STATION/POSITION TIME  TEMP    WIND        PRES    WAVE   SWELL
                       AIR SEA DIR/SP/G            HT/PER HT/PER
                 (UTC) (F)     (DEG/KT/KT) (MB)    (FT/S) (FT/S)
CHESAPEAKE LIGHT 2000   70      50/ 11/ 13 1012.1
BUOY 44014       2000   70 73   40/ 10/ 12 1010.6    2/15   2/15
DUCK             2000   71 73   20/ 12/ 13 1010.2
2E DUCK          2000                        N/A     2/ 8
OREGON INLET     2000   72 73   30/ 10/ 15 1010.4
BUOY 44095       2000      74                N/A     3/ 7
20E OREGON INLET NOT AVBL
HATTERAS CG      2000   72 75   20/ 14/ 17 1010.4
DIAMOND BUOY     2000   74     350/ 16/ 17 1009.3    4/ 7   2/ 7
CAPE LOOKOUT     2000   74      40/ 13/ 14 1009.6
BEAUFORT LAB     2000   78 75   20/ 11/ 14 1009.1
30 SE NEW RIVER  2000   75 80   30/ 14/ 17 1009.0    3/ 8   2/ 8
5 SE WRIGHTSVILL 2000   72 76   70/ 10/ 12   N/A
BUOY 41002       1914   76 81  130/ 10/ 12 1007.6    3/ 7   2/ 7
BUOY 41004       2000   75 81   20/ 14/ 17 1009.5    4/ 6   2/14

$$


USA.gov is the U.S. government's official web portal to all federal, state and local government web resources and services.